GOES 13 [+]

Last updated on Dec. 22, 2017, 12:18 a.m. UTC

1 29155U 06018A   17354.95763777 -.00000243  00000-0  00000+0 0  9997
2 29155   0.2425 103.6108 0001641 313.8445 302.5677  1.00272092 42432
UTC
Height (km)
Latitude
Longitude
Inclination
Orbital Period
UTC large
Height (km)
Speed (km/s)
/
Latitude / Longitude
Inclination (degrees)
Orbital Period (minutes)
Azimuth
Elevation
Range (km)
Doppler Factor
iOS Compass Heading
iOS Angle